Flag for Norway Weather past 2 weeks in Bergen, Norway

Now
53 °F

Sprinkles. Overcast.


Feels Like: 52 °F
Forecast: 46 / 54 °F
Wind: 5 mph from West

Location: Bergen / Florida

Current Time: May 30, 2015 at 3:27:46 PM

Latest Report: May 30, 2015 at 2:00 PM


Visibility: 19 mi

Pressure: 29.57 "Hg

Humidity: 62%

Dew point: 41 °F

Location of BergenLocation

Historic Weather in Bergen — Graph

°F

Bergen temperature yesterday

Maximum temperature yesterday: 51 °F (at 6:00 PM)
Minimum temperature yesterday: 42 °F (at 4:00 AM)
Average temperature yesterday: 46 °F

Past Weeks' High & Low Weather Summary

 TemperatureHumidityPressure
High58 °F (May 20, 5:00 PM)89% (May 22, 2:00 AM)30.15 "Hg (May 22, 2:00 AM)
Low40 °F (May 24, 1:00 AM)29% (May 19, 2:00 AM)29.23 "Hg (May 19, 8:00 AM)
Average47 °F72%29.79 "Hg
* Reported May 15 2:00 PM — May 30 2:00 PM, Bergen, Weather by CustomWeather, © 2015

Note: Actual official high and low records may vary slightly from our data, if they occured in-between our weather recording intervals... More about our weather records

Advertising

Bergen weather history for previous 24 hours

 ConditionsComfort  
Time TempWeatherWind HumidityBarometerVisibility
2:00 PM
Sat, May 30
53 °FSprinkles. Overcast.5 mph62%29.57 "Hg19 mi
1:00 PM53 °FCool.3 mph62%29.57 "HgN/A
12:00 PM51 °FCool.5 mph62%29.57 "HgN/A
11:00 AM52 °FScattered clouds.3 mph61%29.57 "Hg25 mi
10:00 AM49 °FCool.5 mph66%29.57 "HgN/A
9:00 AM46 °FCool.3 mph79%29.57 "HgN/A
8:00 AM45 °FOvercast.2 mph81%29.57 "Hg19 mi
7:00 AM42 °FQuite cool.1 mph84%29.56 "HgN/A
6:00 AM40 °FQuite cool.No wind85%29.56 "HgN/A
4:00 AM40 °FQuite cool.2 mph82%29.56 "HgN/A
3:00 AM43 °FQuite cool.1 mph78%29.57 "HgN/A
2:00 AM44 °FQuite cool.1 mph78%29.57 "HgN/A
12:00 AM44 °FQuite cool.3 mph79%29.59 "HgN/A
10:00 PM
Fri, May 29
45 °FCool.3 mph72%29.58 "HgN/A
9:00 PM45 °FCool.7 mph73%29.57 "HgN/A
8:00 PM45 °FOvercast.6 mph77%29.57 "Hg25 mi
7:00 PM48 °FCool.6 mph67%29.56 "HgN/A
6:00 PM51 °FCool.3 mph63%29.54 "HgN/A
5:00 PM51 °FPartly sunny.6 mph64%29.55 "Hg25 mi
4:00 PM48 °FCool.5 mph75%29.56 "HgN/A
3:00 PM45 °FCool.6 mph76%29.55 "HgN/A
Weather by CustomWeather, © 2015

See weather overviewHow to use our weather pages